{"data":{"norad_id":64074,"intl_designator":"2025-107L","name":"STARLINK-11730 [DTC]","alt_names":[],"object_type":"PAYLOAD","status":"ACTIVE","operator":null,"country":"US","launch_date":"2025-05-21","launch_site_code":"AFETR","launch_vehicle":null,"mission":null,"orbit_class":"UNKNOWN","rcs_meters":null,"size_class":null,"mass_kg":null,"dimensions":null,"purposes":["comms"],"wikipedia_slug":null,"has_3d_model":false,"image_url":null,"decayed_at":null,"tle_current":{"epoch":"2026-05-24T14:27:22.514688Z","epoch_age_seconds":119525,"freshness":"FRESH","line1":"1 64074U 25107L   26144.60234392  .00175075  00000+0  13333-2 0  9991","line2":"2 64074  42.9998   0.9687 0000367 219.1982 140.8859 15.70946900 59237","mean_motion":15.709469,"eccentricity":3.67e-5,"inclination_deg":42.9998,"raan_deg":0.9687,"arg_perigee_deg":219.1982,"mean_anomaly_deg":140.8859,"bstar":0.0013333,"rev_number":5923,"period_min":91.664460460121,"perigee_km":355.94238890425,"apogee_km":356.43668847219,"semimajor_km":6734.3265386882,"source":"CELESTRAK","updated_at":"2026-05-25T13:38:20.259658Z"}}}